| time (UTC) | temp F | wind direction | speed knots | gust knots | rain 1hr in | rain 24hr in | rain mn in | humidity % | barometer mb |
| 20260503072023 | 74 | 229 | 8.7 | 0.0 | 0.00 | 0.00 | 0.00 | 30 | 2147.4 |
| 20260503071522 | 74 | 229 | 8.7 | 0.0 | 0.00 | 0.00 | 0.00 | 33 | 2147.4 |
| 20260503071018 | 74 | 229 | 8.7 | 0.0 | 0.00 | 0.00 | 0.00 | 31 | 2147.4 |
| 20260503070517 | 73 | 229 | 8.7 | 0.0 | 0.00 | 0.00 | 0.00 | 33 | 2147.4 |
| 20260503054931 | 70 | 225 | 7.8 | 0.0 | 0.00 | 0.00 | 0.00 | 38 | 2147.4 |
| 20260503054428 | 68 | 225 | 7.8 | 0.0 | 0.00 | 0.00 | 0.00 | 41 | 2147.4 |
| 20260503053924 | 69 | 218 | 5.2 | 0.0 | 0.00 | 0.00 | 0.00 | 43 | 2147.4 |
| 20260503053420 | 68 | 218 | 5.2 | 0.0 | 0.00 | 0.00 | 0.00 | 44 | 2147.4 |
| 20260503052917 | 67 | 218 | 5.2 | 0.0 | 0.00 | 0.00 | 0.00 | 44 | 2147.4 |
| 20260503052413 | 66 | 218 | 5.2 | 0.0 | 0.00 | 0.00 | 0.00 | 47 | 2147.4 |
| 20260503051910 | 64 | 218 | 5.2 | 0.0 | 0.00 | 0.00 | 0.00 | 49 | 2147.4 |
| 20260503051406 | 63 | 217 | 4.3 | 0.0 | 0.00 | 0.00 | 0.00 | 49 | 2147.4 |
| 20260503050903 | 62 | 217 | 4.3 | 0.0 | 0.00 | 0.00 | 0.00 | 49 | 2147.4 |
| 20260503050359 | 61 | 217 | 4.3 | 0.0 | 0.00 | 0.00 | 0.00 | 49 | 2147.4 |
| 20260503045856 | 60 | 217 | 4.3 | 0.0 | 0.00 | 0.00 | 0.00 | 50 | 2147.4 |
| 20260503045353 | 59 | 217 | 4.3 | 0.0 | 0.00 | 0.00 | 0.00 | 51 | 2147.4 |
| 20260503044348 | 57 | 217 | 4.3 | 0.0 | 0.00 | 0.00 | 0.00 | 53 | 2147.4 |
| 20260503043844 | 57 | 217 | 4.3 | 0.0 | 0.00 | 0.00 | 0.00 | 54 | 2147.4 |
| 20260503043341 | 56 | 217 | 4.3 | 0.0 | 0.00 | 0.00 | 0.00 | 56 | 2147.4 |
| 20260503042839 | 55 | 217 | 4.3 | 0.0 | 0.00 | 0.00 | 0.00 | 56 | 2147.4 |
| 20260503042337 | 54 | 217 | 4.3 | 0.0 | 0.00 | 0.00 | 0.00 | 57 | 2147.4 |
| 20260503041833 | 53 | 217 | 4.3 | 0.0 | 0.00 | 0.00 | 0.00 | 59 | 2147.4 |
| 20260503041329 | 52 | 217 | 4.3 | 0.0 | 0.00 | 0.00 | 0.00 | 61 | 2147.4 |
| 20260503040826 | 50 | 217 | 4.3 | 0.0 | 0.00 | 0.00 | 0.00 | 63 | 2147.4 |
| 20260503040322 | 49 | 217 | 4.3 | 0.0 | 0.00 | 0.00 | 0.00 | 64 | 2147.4 |
| 20260503035819 | 48 | 217 | 4.3 | 0.0 | 0.00 | 0.00 | 0.00 | 67 | 2147.4 |
| 20260503035316 | 47 | 217 | 4.3 | 0.0 | 0.00 | 0.00 | 0.00 | 68 | 2147.4 |
| 20260503034813 | 46 | 217 | 4.3 | 0.0 | 0.00 | 0.00 | 0.00 | 71 | 2147.4 |
| 20260503034309 | 45 | 217 | 4.3 | 0.0 | 0.00 | 0.00 | 0.00 | 71 | 2147.4 |
| 20260503033806 | 45 | 217 | 4.3 | 0.0 | 0.00 | 0.00 | 0.00 | 73 | 2147.4 |
| 20260503033302 | 44 | 223 | 4.3 | 0.0 | 0.00 | 0.00 | 0.00 | 75 | 2147.4 |
| 20260503032759 | 44 | 223 | 4.3 | 0.0 | 0.00 | 0.00 | 0.00 | 76 | 2147.4 |
| 20260503032256 | 43 | 223 | 4.3 | 0.0 | 0.00 | 0.00 | 0.00 | 80 | 2147.4 |
| 20260503031754 | 43 | 223 | 4.3 | 0.0 | 0.00 | 0.00 | 0.00 | 80 | 2147.4 |
| 20260503031253 | 42 | 223 | 4.3 | 0.0 | 0.00 | 0.00 | 0.00 | 84 | 2147.4 |
| 20260503030749 | 41 | 223 | 4.3 | 0.0 | 0.00 | 0.00 | 0.00 | 90 | 2147.4 |
| 20260503030246 | 40 | 223 | 4.3 | 0.0 | 0.00 | 0.00 | 0.00 | 92 | 2147.4 |
| 20260503025743 | 39 | 223 | 4.3 | 0.0 | 0.00 | 0.00 | 0.00 | 91 | 2147.4 |
| 20260503025239 | 40 | 223 | 4.3 | 0.0 | 0.00 | 0.00 | 0.00 | 90 | 2147.4 |
| 20260503024738 | 40 | 223 | 4.3 | 0.0 | 0.00 | 0.00 | 0.00 | 89 | 2147.4 |
| 20260503024235 | 40 | 223 | 4.3 | 0.0 | 0.00 | 0.00 | 0.00 | 88 | 2147.4 |
| 20260503023731 | 40 | 232 | 4.3 | 0.0 | 0.00 | 0.00 | 0.00 | 91 | 2147.4 |
| 20260503022726 | 40 | 232 | 4.3 | 0.0 | 0.00 | 0.00 | 0.00 | 89 | 2147.4 |
| 20260503022223 | 40 | 232 | 4.3 | 0.0 | 0.00 | 0.00 | 0.00 | 91 | 2147.4 |
| 20260503021719 | 40 | 232 | 4.3 | 0.0 | 0.00 | 0.00 | 0.00 | 90 | 2147.4 |
| 20260503021216 | 40 | 232 | 4.3 | 0.0 | 0.00 | 0.00 | 0.00 | 90 | 2147.4 |
| 20260503020712 | 40 | 232 | 4.3 | 0.0 | 0.00 | 0.00 | 0.00 | 88 | 2147.4 |
| 20260503020209 | 40 | 232 | 4.3 | 0.0 | 0.00 | 0.00 | 0.00 | 87 | 2147.4 |
| 20260503015705 | 41 | 232 | 4.3 | 0.0 | 0.00 | 0.00 | 0.00 | 87 | 2147.4 |
| 20260503015202 | 41 | 232 | 4.3 | 0.0 | 0.00 | 0.00 | 0.00 | 88 | 2147.4 |
| 20260503014701 | 40 | 232 | 4.3 | 0.0 | 0.00 | 0.00 | 0.00 | 87 | 2147.4 |
| 20260503014200 | 41 | 232 | 4.3 | 0.0 | 0.00 | 0.00 | 0.00 | 89 | 2147.4 |
| 20260503013657 | 41 | 232 | 4.3 | 0.0 | 0.00 | 0.00 | 0.00 | 87 | 2147.4 |
| 20260503013153 | 41 | 236 | 4.3 | 0.0 | 0.00 | 0.00 | 0.00 | 88 | 2147.4 |
| 20260503012649 | 40 | 236 | 4.3 | 0.0 | 0.00 | 0.00 | 0.00 | 89 | 2147.4 |
| 20260503012146 | 40 | 236 | 4.3 | 0.0 | 0.00 | 0.00 | 0.00 | 91 | 2147.4 |
| 20260503011642 | 40 | 236 | 4.3 | 0.0 | 0.00 | 0.00 | 0.00 | 90 | 2147.4 |
| 20260503011139 | 41 | 236 | 4.3 | 0.0 | 0.00 | 0.00 | 0.00 | 90 | 2147.4 |
| 20260503010636 | 41 | 236 | 4.3 | 0.0 | 0.00 | 0.00 | 0.00 | 91 | 2147.4 |
| 20260503010132 | 41 | 236 | 4.3 | 0.0 | 0.00 | 0.00 | 0.00 | 88 | 2147.4 |
| 20260503005630 | 41 | 236 | 4.3 | 0.0 | 0.00 | 0.00 | 0.00 | 90 | 2147.4 |
| 20260503005127 | 41 | 236 | 4.3 | 0.0 | 0.00 | 0.00 | 0.00 | 91 | 2147.4 |
| 20260503004624 | 41 | 230 | 4.3 | 0.0 | 0.00 | 0.00 | 0.00 | 88 | 2147.4 |
| 20260503004120 | 41 | 230 | 4.3 | 0.0 | 0.00 | 0.00 | 0.00 | 88 | 2147.4 |
| 20260503003617 | 41 | 230 | 4.3 | 0.0 | 0.00 | 0.00 | 0.00 | 90 | 2147.4 |
| 20260503003116 | 41 | 233 | 4.3 | 0.0 | 0.00 | 0.00 | 0.00 | 89 | 2147.4 |
| 20260503002612 | 41 | 233 | 4.3 | 0.0 | 0.00 | 0.00 | 0.00 | 90 | 2147.4 |
| 20260503002109 | 41 | 233 | 4.3 | 0.0 | 0.00 | 0.00 | 0.00 | 89 | 2147.4 |
| 20260503001608 | 41 | 233 | 4.3 | 0.0 | 0.00 | 0.00 | 0.00 | 89 | 2147.4 |
| 20260503001107 | 41 | 233 | 4.3 | 0.0 | 0.00 | 0.00 | 0.00 | 87 | 2147.4 |
| 20260503000604 | 41 | 233 | 4.3 | 0.0 | 0.00 | 0.00 | 0.00 | 87 | 2147.4 |
| 20260503000103 | 41 | 233 | 4.3 | 0.0 | 0.00 | 0.00 | 0.00 | 89 | 2147.4 |
| 20260502235600 | 41 | 233 | 4.3 | 0.0 | 0.00 | 0.00 | 0.00 | 92 | 2147.4 |
| 20260502235056 | 41 | 233 | 4.3 | 0.0 | 0.00 | 0.00 | 0.00 | 91 | 2147.4 |
| 20260502234555 | 41 | 233 | 4.3 | 0.0 | 0.00 | 0.00 | 0.00 | 92 | 2147.4 |
| 20260502234052 | 40 | 233 | 4.3 | 0.0 | 0.00 | 0.00 | 0.00 | 93 | 2147.4 |
| 20260502233548 | 40 | 233 | 4.3 | 0.0 | 0.00 | 0.00 | 0.00 | 92 | 2147.4 |
| 20260502233047 | 40 | 231 | 4.3 | 0.0 | 0.00 | 0.00 | 0.00 | 91 | 2147.4 |
| 20260502232544 | 41 | 231 | 4.3 | 0.0 | 0.00 | 0.00 | 0.00 | 92 | 2147.4 |
| 20260502232040 | 41 | 231 | 4.3 | 0.0 | 0.00 | 0.00 | 0.00 | 93 | 2147.4 |
| 20260502231537 | 41 | 231 | 4.3 | 0.0 | 0.00 | 0.00 | 0.00 | 94 | 2147.4 |
| 20260502231030 | 41 | 231 | 4.3 | 0.0 | 0.00 | 0.00 | 0.00 | 91 | 2147.4 |
| 20260502230526 | 41 | 231 | 4.3 | 0.0 | 0.00 | 0.00 | 0.00 | 91 | 2147.4 |
| 20260502230025 | 41 | 231 | 4.3 | 0.0 | 0.00 | 0.00 | 0.00 | 93 | 2147.4 |
| 20260502225523 | 41 | 231 | 4.3 | 0.0 | 0.00 | 0.00 | 0.00 | 92 | 2147.4 |
| 20260502225019 | 42 | 231 | 4.3 | 0.0 | 0.00 | 0.00 | 0.00 | 90 | 2147.4 |
| 20260502224518 | 42 | 231 | 4.3 | 0.0 | 0.00 | 0.00 | 0.00 | 88 | 2147.4 |
| 20260502224014 | 42 | 231 | 4.3 | 0.0 | 0.00 | 0.00 | 0.00 | 87 | 2147.4 |
| 20260502223511 | 42 | 231 | 4.3 | 0.0 | 0.00 | 0.00 | 0.00 | 84 | 2147.4 |
| 20260502223008 | 43 | 225 | 4.3 | 0.0 | 0.00 | 0.00 | 0.00 | 82 | 2147.4 |
| 20260502222504 | 42 | 225 | 4.3 | 0.0 | 0.00 | 0.00 | 0.00 | 85 | 2147.4 |
| 20260502222001 | 42 | 225 | 4.3 | 0.0 | 0.00 | 0.00 | 0.00 | 87 | 2147.4 |
| 20260502221457 | 42 | 225 | 4.3 | 0.0 | 0.00 | 0.00 | 0.00 | 88 | 2147.4 |
| 20260502220954 | 42 | 225 | 4.3 | 0.0 | 0.00 | 0.00 | 0.00 | 89 | 2147.4 |
| 20260502220450 | 42 | 225 | 4.3 | 0.0 | 0.00 | 0.00 | 0.00 | 90 | 2147.4 |
| 20260502215947 | 42 | 225 | 4.3 | 0.0 | 0.00 | 0.00 | 0.00 | 89 | 2147.4 |
| 20260502215444 | 42 | 225 | 4.3 | 0.0 | 0.00 | 0.00 | 0.00 | 89 | 2147.4 |
| 20260502214940 | 42 | 225 | 4.3 | 0.0 | 0.00 | 0.00 | 0.00 | 89 | 2147.4 |
| 20260502214436 | 42 | 225 | 4.3 | 0.0 | 0.00 | 0.00 | 0.00 | 87 | 2147.4 |
| 20260502213932 | 42 | 225 | 4.3 | 0.0 | 0.00 | 0.00 | 0.00 | 87 | 2147.4 |
| 20260502213431 | 42 | 225 | 4.3 | 0.0 | 0.00 | 0.00 | 0.00 | 87 | 2147.4 |
| 20260502212928 | 42 | 221 | 3.5 | 0.0 | 0.00 | 0.00 | 0.00 | 87 | 2147.4 |
| 20260502212424 | 43 | 221 | 3.5 | 0.0 | 0.00 | 0.00 | 0.00 | 88 | 2147.4 |
| 20260502211923 | 43 | 221 | 3.5 | 0.0 | 0.00 | 0.00 | 0.00 | 86 | 2147.4 |
| 20260502211420 | 43 | 221 | 3.5 | 0.0 | 0.00 | 0.00 | 0.00 | 86 | 2147.4 |
| 20260502210917 | 43 | 221 | 3.5 | 0.0 | 0.00 | 0.00 | 0.00 | 83 | 2147.4 |
| 20260502210413 | 44 | 221 | 3.5 | 0.0 | 0.00 | 0.00 | 0.00 | 83 | 2147.4 |
| 20260502205909 | 44 | 221 | 3.5 | 0.0 | 0.00 | 0.00 | 0.00 | 82 | 2147.4 |
| 20260502205405 | 44 | 221 | 3.5 | 0.0 | 0.00 | 0.00 | 0.00 | 80 | 2147.4 |
| 20260502204902 | 44 | 221 | 3.5 | 0.0 | 0.00 | 0.00 | 0.00 | 81 | 2147.4 |
| 20260502204401 | 45 | 221 | 3.5 | 0.0 | 0.00 | 0.00 | 0.00 | 80 | 2147.4 |
| 20260502203859 | 45 | 221 | 3.5 | 0.0 | 0.00 | 0.00 | 0.00 | 78 | 2147.4 |
| 20260502203358 | 45 | 217 | 2.6 | 0.0 | 0.00 | 0.00 | 0.00 | 78 | 2147.4 |
| 20260502202857 | 46 | 217 | 2.6 | 0.0 | 0.00 | 0.00 | 0.00 | 83 | 2147.4 |
| 20260502202354 | 46 | 217 | 2.6 | 0.0 | 0.00 | 0.00 | 0.00 | 80 | 2147.4 |
| 20260502201852 | 46 | 217 | 2.6 | 0.0 | 0.00 | 0.00 | 0.00 | 77 | 2147.4 |
| 20260502201351 | 46 | 217 | 2.6 | 0.0 | 0.00 | 0.00 | 0.00 | 82 | 2147.4 |
| 20260502200847 | 46 | 217 | 2.6 | 0.0 | 0.00 | 0.00 | 0.00 | 79 | 2147.4 |
| 20260502200346 | 46 | 217 | 2.6 | 0.0 | 0.00 | 0.00 | 0.00 | 81 | 2147.4 |
| 20260502195842 | 47 | 217 | 2.6 | 0.0 | 0.00 | 0.00 | 0.00 | 75 | 2147.4 |
| 20260502195338 | 47 | 217 | 2.6 | 0.0 | 0.00 | 0.00 | 0.00 | 75 | 2147.4 |
| 20260502194837 | 47 | 217 | 2.6 | 0.0 | 0.00 | 0.00 | 0.00 | 73 | 2147.4 |
| 20260502194335 | 47 | 217 | 2.6 | 0.0 | 0.00 | 0.00 | 0.00 | 73 | 2147.4 |
| 20260502193832 | 47 | 196 | 1.7 | 0.0 | 0.00 | 0.00 | 0.00 | 80 | 2147.4 |
| 20260502193330 | 48 | 196 | 1.7 | 0.0 | 0.00 | 0.00 | 0.00 | 77 | 2147.4 |
| 20260502192827 | 48 | 196 | 1.7 | 0.0 | 0.00 | 0.00 | 0.00 | 76 | 2147.4 |
| 20260502192323 | 49 | 196 | 1.7 | 0.0 | 0.00 | 0.00 | 0.00 | 75 | 2147.4 |
| 20260502191822 | 49 | 196 | 1.7 | 0.0 | 0.00 | 0.00 | 0.00 | 72 | 2147.4 |
| 20260502191318 | 50 | 196 | 1.7 | 0.0 | 0.00 | 0.00 | 0.00 | 76 | 2147.4 |
| 20260502190814 | 51 | 196 | 1.7 | 0.0 | 0.00 | 0.00 | 0.00 | 75 | 2147.4 |
| 20260502190311 | 51 | 196 | 1.7 | 0.0 | 0.00 | 0.00 | 0.00 | 76 | 2147.4 |
| 20260502185807 | 51 | 196 | 1.7 | 0.0 | 0.00 | 0.00 | 0.00 | 68 | 2147.4 |
| 20260502185305 | 51 | 196 | 1.7 | 0.0 | 0.00 | 0.00 | 0.00 | 71 | 2147.4 |
| 20260502184800 | 51 | 258 | 6.1 | 0.0 | 0.00 | 0.00 | 0.00 | 69 | 2147.4 |
| 20260502184257 | 52 | 258 | 6.1 | 0.0 | 0.00 | 0.00 | 0.00 | 70 | 2147.4 |
| 20260502183753 | 52 | 258 | 6.1 | 0.0 | 0.00 | 0.00 | 0.00 | 66 | 2147.4 |
| 20260502183250 | 53 | 258 | 6.1 | 0.0 | 0.00 | 0.00 | 0.00 | 65 | 2147.4 |
| 20260502182746 | 53 | 258 | 6.1 | 0.0 | 0.00 | 0.00 | 0.00 | 66 | 2147.4 |
| 20260502182243 | 54 | 258 | 6.1 | 0.0 | 0.00 | 0.00 | 0.00 | 67 | 2147.4 |
| 20260502181742 | 55 | 258 | 6.1 | 0.0 | 0.00 | 0.00 | 0.00 | 63 | 2147.4 |
| 20260502181239 | 55 | 258 | 6.1 | 0.0 | 0.00 | 0.00 | 0.00 | 68 | 2147.4 |
| 20260502180735 | 56 | 258 | 6.1 | 0.0 | 0.00 | 0.00 | 0.00 | 73 | 2147.4 |
| 20260502180232 | 57 | 258 | 6.1 | 0.0 | 0.00 | 0.00 | 0.00 | 72 | 2147.4 |
| 20260502170158 | 66 | 258 | 6.1 | 0.0 | 0.00 | 0.00 | 0.00 | 44 | 2147.4 |
| 20260502164150 | 66 | 258 | 6.1 | 0.0 | 0.00 | 0.00 | 0.00 | 44 | 2147.4 |
| 20260502163646 | 65 | 258 | 6.1 | 0.0 | 0.00 | 0.00 | 0.00 | 49 | 2147.4 |
| 20260502163145 | 65 | 258 | 6.1 | 0.0 | 0.00 | 0.00 | 0.00 | 53 | 2147.4 |
| 20260502162642 | 66 | 258 | 6.1 | 0.0 | 0.00 | 0.00 | 0.00 | 45 | 2147.4 |
| 20260502162138 | 66 | 258 | 6.1 | 0.0 | 0.00 | 0.00 | 0.00 | 38 | 2147.4 |
| 20260502161637 | 66 | 258 | 6.1 | 0.0 | 0.00 | 0.00 | 0.00 | 41 | 2147.4 |
| 20260502161136 | 68 | 258 | 6.1 | 0.0 | 0.00 | 0.00 | 0.00 | 36 | 2147.4 |
| 20260502160632 | 69 | 258 | 6.1 | 0.0 | 0.00 | 0.00 | 0.00 | 29 | 2147.4 |
| 20260502160129 | 70 | 258 | 6.1 | 0.0 | 0.00 | 0.00 | 0.00 | 30 | 2147.4 |
| 20260502152103 | 70 | 258 | 6.1 | 0.0 | 0.00 | 0.00 | 0.00 | 34 | 2147.4 |
| 20260502151559 | 74 | 258 | 6.1 | 0.0 | 0.00 | 0.00 | 0.00 | 21 | 2147.4 |
| 20260502151057 | 72 | 258 | 6.1 | 0.0 | 0.00 | 0.00 | 0.00 | 25 | 2147.4 |
| 20260502150553 | 71 | 258 | 6.1 | 0.0 | 0.00 | 0.00 | 0.00 | 29 | 2147.4 |
| 20260502130437 | 72 | 258 | 6.1 | 0.0 | 0.00 | 0.00 | 0.00 | 22 | 2147.4 |
| 20260502123419 | 72 | 258 | 6.1 | 0.0 | 0.00 | 0.00 | 0.00 | 23 | 2147.4 |
| 20260502122916 | 72 | 258 | 6.1 | 0.0 | 0.00 | 0.00 | 0.00 | 23 | 2147.4 |
| 20260502122413 | 71 | 258 | 6.1 | 0.0 | 0.00 | 0.00 | 0.00 | 23 | 2147.4 |
| 20260502121911 | 71 | 258 | 6.1 | 0.0 | 0.00 | 0.00 | 0.00 | 22 | 2147.4 |
| 20260502121408 | 72 | 258 | 6.1 | 0.0 | 0.00 | 0.00 | 0.00 | 20 | 2147.4 |
| 20260502120904 | 71 | 258 | 6.1 | 0.0 | 0.00 | 0.00 | 0.00 | 20 | 2147.4 |
| 20260502120400 | 71 | 258 | 6.1 | 0.0 | 0.00 | 0.00 | 0.00 | 23 | 2147.4 |
| 20260502115858 | 71 | 258 | 6.1 | 0.0 | 0.00 | 0.00 | 0.00 | 23 | 2147.4 |
| 20260502115353 | 72 | 258 | 6.1 | 0.0 | 0.00 | 0.00 | 0.00 | 21 | 2147.4 |
| 20260502114850 | 71 | 258 | 6.1 | 0.0 | 0.00 | 0.00 | 0.00 | 20 | 2147.4 |
| 20260502114346 | 71 | 258 | 6.1 | 0.0 | 0.00 | 0.00 | 0.00 | 22 | 2147.4 |
| 20260502113843 | 72 | 258 | 6.1 | 0.0 | 0.00 | 0.00 | 0.00 | 20 | 2147.4 |
| 20260502113339 | 71 | 258 | 6.1 | 0.0 | 0.00 | 0.00 | 0.00 | 24 | 2147.4 |
| 20260502112836 | 72 | 258 | 6.1 | 0.0 | 0.00 | 0.00 | 0.00 | 27 | 2147.4 |
| 20260502112333 | 71 | 258 | 6.1 | 0.0 | 0.00 | 0.00 | 0.00 | 28 | 2147.4 |
| 20260502111829 | 71 | 258 | 6.1 | 0.0 | 0.00 | 0.00 | 0.00 | 27 | 2147.4 |
| 20260502111325 | 70 | 258 | 6.1 | 0.0 | 0.00 | 0.00 | 0.00 | 25 | 2147.4 |
| 20260502110822 | 71 | 258 | 6.1 | 0.0 | 0.00 | 0.00 | 0.00 | 24 | 2147.4 |
| 20260502110318 | 71 | 258 | 6.1 | 0.0 | 0.00 | 0.00 | 0.00 | 26 | 2147.4 |
| 20260502105815 | 71 | 258 | 6.1 | 0.0 | 0.00 | 0.00 | 0.00 | 20 | 2147.4 |
| 20260502105312 | 71 | 258 | 6.1 | 0.0 | 0.00 | 0.00 | 0.00 | 20 | 2147.4 |
| 20260502104811 | 71 | 258 | 6.1 | 0.0 | 0.00 | 0.00 | 0.00 | 23 | 2147.4 |
| 20260502104307 | 71 | 258 | 6.1 | 0.0 | 0.00 | 0.00 | 0.00 | 26 | 2147.4 |
| 20260502103804 | 71 | 258 | 6.1 | 0.0 | 0.00 | 0.00 | 0.00 | 22 | 2147.4 |
| 20260502103301 | 71 | 258 | 6.1 | 0.0 | 0.00 | 0.00 | 0.00 | 26 | 2147.4 |
| 20260502102757 | 71 | 258 | 6.1 | 0.0 | 0.00 | 0.00 | 0.00 | 28 | 2147.4 |
| 20260502102253 | 71 | 258 | 6.1 | 0.0 | 0.00 | 0.00 | 0.00 | 26 | 2147.4 |
| 20260502101749 | 71 | 258 | 6.1 | 0.0 | 0.00 | 0.00 | 0.00 | 26 | 2147.4 |
| 20260502101246 | 70 | 258 | 6.1 | 0.0 | 0.00 | 0.00 | 0.00 | 29 | 2147.4 |
| 20260502100743 | 72 | 258 | 6.1 | 0.0 | 0.00 | 0.00 | 0.00 | 29 | 2147.4 |
| 20260502100242 | 71 | 258 | 6.1 | 0.0 | 0.00 | 0.00 | 0.00 | 27 | 2147.4 |
| 20260502091211 | 71 | 258 | 6.1 | 0.0 | 0.00 | 0.00 | 0.00 | 30 | 2147.4 |
| 20260502090708 | 70 | 258 | 6.1 | 0.0 | 0.00 | 0.00 | 0.00 | 33 | 2147.4 |
| 20260502090204 | 72 | 258 | 6.1 | 0.0 | 0.00 | 0.00 | 0.00 | 29 | 2147.4 |